Date String (YYYY-MM-DD hh:mm:ss) UTC,Instrument flags,Ambient pressure (hPa),Sample flow (lpm),Bypass flow (lpm),Sample temperature (°C),Ambient temperature (°C),ASC tube jacket temperature (°C),LED temperature (°C),Box temperature (°C),Sample RH (%),Span deviation,Mass concentration (μg/m³),Mass concentration (μg/m³),Mass concentration (μg/m³)
DateTimeUTC,F1_M11,P_M11,Q1_M11,Q2_M11,T1_M11,T2_M11,T3_M11,T4_M11,T5_M11,U1_M11,ZSPAN_M11,X0_M11,X2_M11,X1_M11
2022-07-05 13:00:00,,0826.5,5.00,0.00,30.1,29.1,00.0,38.8,32.0,23.1,0000.0,0006.91,0003.88,0003.46
2022-07-05 13:01:00,,0826.6,5.00,0.00,30.1,29.1,00.0,38.9,32.0,24.4,0000.0,0006.89,0003.87,0003.45
2022-07-05 13:02:00,,0826.5,5.00,0.00,30.1,28.5,00.0,38.8,32.0,25.0,0000.0,0006.74,0003.84,0003.44
2022-07-05 13:03:00,,0826.5,5.01,0.00,30.1,27.7,00.0,38.8,31.8,24.7,0000.0,0006.68,0003.80,0003.42
2022-07-05 13:04:00,,0826.7,5.00,0.00,30.0,27.5,00.0,38.7,31.7,24.5,0000.0,0006.75,0003.80,0003.41
2022-07-05 13:05:00,,0826.5,5.00,0.00,29.9,27.5,00.0,38.7,31.6,24.7,0000.0,0006.86,0003.80,0003.39
2022-07-05 13:06:00,,0826.5,5.00,0.00,29.9,27.6,00.0,38.7,31.6,25.6,0000.0,0006.85,0003.75,0003.34
2022-07-05 13:07:00,,0826.6,5.00,0.00,29.8,27.8,00.0,38.7,31.6,25.7,0000.0,0006.59,0003.67,0003.29
2022-07-05 13:08:00,,0826.5,5.01,0.00,29.8,27.9,00.0,38.7,31.6,26.1,0000.0,0006.86,0003.64,0003.24
2022-07-05 13:09:00,,0826.5,5.00,0.00,29.8,28.0,00.0,38.7,31.6,25.0,0000.0,0006.79,0003.61,0003.20
2022-07-05 13:10:00,,0826.5,5.00,0.00,29.8,28.2,00.0,38.7,31.6,25.0,0000.0,0006.55,0003.56,0003.16
2022-07-05 13:11:00,,0826.6,5.00,0.00,29.8,28.3,00.0,38.7,31.6,24.5,0000.0,0006.39,0003.52,0003.11
2022-07-05 13:12:00,,0826.6,5.00,0.00,29.8,28.4,00.0,38.6,31.7,24.2,0000.0,0006.27,0003.47,0003.05
2022-07-05 13:13:00,,0826.7,5.00,0.00,29.8,28.4,00.0,38.6,31.7,24.9,0000.0,0006.32,0003.46,0003.00
2022-07-05 13:14:00,,0826.7,5.00,0.00,29.8,28.5,00.0,38.7,31.7,24.8,0000.0,0006.32,0003.44,0002.96
2022-07-05 13:15:00,,0826.7,5.00,0.00,29.8,28.6,00.0,38.7,31.7,24.7,0000.0,0006.38,0003.44,0002.94
2022-07-05 13:16:00,,0826.7,4.99,0.00,29.8,28.6,00.0,38.7,31.7,24.2,0000.0,0006.75,0003.41,0002.91
2022-07-05 13:17:00,,0826.6,5.00,0.00,29.9,28.7,00.0,38.7,31.7,23.6,0000.0,0007.36,0003.41,0002.92
2022-07-05 13:18:00,,0826.7,5.01,0.00,29.9,28.7,00.0,38.7,31.7,24.3,0000.0,0007.85,0003.45,0002.96
2022-07-05 13:19:00,,0826.7,5.00,0.00,29.9,28.8,00.0,38.7,31.8,25.5,0000.0,0007.76,0003.45,0002.97
2022-07-05 13:20:00,,0826.7,5.00,0.00,29.9,28.8,00.0,38.7,31.8,25.8,0000.0,0007.69,0003.45,0002.99
2022-07-05 13:21:00,,0826.7,4.99,0.00,29.9,28.8,00.0,38.7,31.8,25.5,0000.0,0007.86,0003.48,0003.03
2022-07-05 13:22:00,,0826.7,5.00,0.00,29.9,28.9,00.0,38.7,31.8,26.0,0000.0,0008.02,0003.51,0003.04
2022-07-05 13:23:00,,0826.7,5.00,0.00,30.0,28.9,00.0,38.7,31.9,25.5,0000.0,0008.52,0003.54,0003.05
2022-07-05 13:24:00,,0826.8,5.00,0.00,30.0,28.9,00.0,38.7,31.9,25.3,0000.0,0009.05,0003.55,0003.09
2022-07-05 13:25:00,,0826.8,5.00,0.00,30.0,29.0,00.0,38.7,31.9,25.6,0000.0,0009.25,0003.58,0003.11
2022-07-05 13:26:00,,0826.7,5.00,0.00,30.0,29.0,00.0,38.8,31.9,25.3,0000.0,0009.15,0003.58,0003.12
2022-07-05 13:27:00,,0826.7,5.00,0.00,30.0,29.0,00.0,38.8,32.0,25.5,0000.0,0009.01,0003.61,0003.14
2022-07-05 13:28:00,,0826.7,5.00,0.00,30.0,29.1,00.0,38.8,32.0,24.8,0000.0,0008.55,0003.67,0003.17
2022-07-05 13:29:00,,0826.7,5.00,0.00,30.1,29.1,00.0,38.8,32.0,24.3,0000.0,0008.57,0003.67,0003.18
2022-07-05 13:30:00,,0826.7,4.99,0.00,30.1,29.1,00.0,38.8,32.0,23.6,0000.0,0008.73,0003.67,0003.19
2022-07-05 13:31:00,,0826.7,5.00,0.00,30.1,28.6,00.0,38.8,32.0,24.0,0000.0,0008.80,0003.70,0003.21
2022-07-05 13:32:00,,0826.7,4.99,0.00,30.1,27.7,00.0,38.7,31.8,23.7,0000.0,0008.80,0003.74,0003.23
2022-07-05 13:33:00,,0826.7,5.01,0.00,30.0,27.3,00.0,38.7,31.7,23.2,0000.0,0008.80,0003.73,0003.25
2022-07-05 13:34:00,,0826.7,5.00,0.00,29.9,27.3,00.0,38.7,31.5,22.9,0000.0,0008.76,0003.73,0003.25
2022-07-05 13:35:00,,0826.7,4.99,0.00,29.8,27.4,00.0,38.6,31.4,22.9,0000.0,0008.15,0003.74,0003.26
2022-07-05 13:36:00,,0826.7,5.01,0.00,29.7,27.5,00.0,38.6,31.4,22.7,0000.0,0008.07,0003.74,0003.26
2022-07-05 13:37:00,,0826.7,5.01,0.00,29.7,27.6,00.0,38.6,31.4,23.3,0000.0,0008.09,0003.77,0003.27
2022-07-05 13:38:00,,0826.7,4.99,0.00,29.7,27.8,00.0,38.6,31.5,23.4,0000.0,0008.16,0003.79,0003.27
2022-07-05 13:39:00,,0826.7,5.00,0.00,29.7,27.9,00.0,38.6,31.5,23.5,0000.0,0008.25,0003.76,0003.26
2022-07-05 13:40:00,,0826.7,4.99,0.00,29.7,28.1,00.0,38.6,31.5,23.8,0000.0,0008.06,0003.76,0003.26
2022-07-05 13:41:00,,0826.7,5.00,0.00,29.7,28.2,00.0,38.6,31.5,24.3,0000.0,0007.65,0003.77,0003.26
2022-07-05 13:42:00,,0826.7,5.00,0.00,29.7,28.3,00.0,38.6,31.6,24.4,0000.0,0007.81,0003.75,0003.24
2022-07-05 13:43:00,,0826.7,5.00,0.00,29.7,28.4,00.0,38.6,31.6,24.1,0000.0,0008.16,0003.76,0003.23
2022-07-05 13:44:00,,0826.7,5.01,0.00,29.7,28.5,00.0,38.6,31.6,23.9,0000.0,0008.16,0003.75,0003.21
2022-07-05 13:45:00,,0826.7,5.01,0.00,29.8,28.5,00.0,38.6,31.6,23.4,0000.0,0007.75,0003.72,0003.18
2022-07-05 13:46:00,,0826.7,4.98,0.00,29.8,28.6,00.0,38.6,31.7,23.3,0000.0,0007.74,0003.67,0003.15
2022-07-05 13:47:00,,0826.7,5.00,0.00,29.8,28.7,00.0,38.6,31.7,24.0,0000.0,0007.92,0003.66,0003.14
2022-07-05 13:48:00,,0826.7,5.00,0.00,29.8,28.7,00.0,38.6,31.7,23.5,0000.0,0008.26,0003.66,0003.13
2022-07-05 13:49:00,,0826.7,5.00,0.00,29.8,28.8,00.0,38.6,31.7,23.9,0000.0,0008.67,0003.63,0003.12
2022-07-05 13:50:00,,0826.7,5.01,0.00,29.9,28.8,00.0,38.6,31.7,23.7,0000.0,0008.58,0003.61,0003.10
2022-07-05 13:51:00,,0826.7,5.00,0.00,29.9,28.8,00.0,38.6,31.7,23.0,0000.0,0008.44,0003.57,0003.06
2022-07-05 13:52:00,,0826.7,5.00,0.00,29.9,28.9,00.0,38.6,31.8,23.4,0000.0,0008.40,0003.57,0003.03
2022-07-05 13:53:00,,0826.8,5.00,0.00,29.9,28.9,00.0,38.7,31.9,23.0,0000.0,0008.36,0003.56,0003.02
2022-07-05 13:54:00,,0826.7,4.99,0.00,29.9,28.9,00.0,38.7,31.9,22.4,0000.0,0007.84,0003.48,0002.99
2022-07-05 13:55:00,,0826.8,4.99,0.00,30.0,29.0,00.0,38.7,31.9,22.4,0000.0,0007.74,0003.43,0002.95
2022-07-05 13:56:00,,0826.8,5.00,0.00,30.0,29.0,00.0,38.7,31.9,22.6,0000.0,0007.75,0003.43,0002.97
2022-07-05 13:57:00,,0826.8,5.00,0.00,30.0,29.0,00.0,38.7,32.0,22.5,0000.0,0008.59,0003.47,0003.01
2022-07-05 13:58:00,,0826.8,5.00,0.00,30.0,28.7,00.0,38.7,31.9,22.2,0000.0,0008.62,0003.46,0003.03
2022-07-05 13:59:00,,0826.8,5.01,0.00,30.0,27.9,00.0,38.7,31.8,22.3,0000.0,0008.45,0003.43,0003.04
